User: anonymous   Login
Location: Salamanca
(40.9670°N, 5.6500°W)
Time: 04:25:11
(UTC+02:00)
Language:

Cosmos 1633 Rocket - Orbit

View from above orbital plane
View from above orbital plane
View from above satellite
View from above satellite

Ground track
Ground track

The orbit data is extracted from the following two-line orbital elements,

1 15593U 85020B   17146.54057924 +.00000078 +00000-0 +64625-5 0  9996
2 15593 082.5373 282.9054 0013163 109.2109 301.8065 14.84274222719993
Epoch (UTC): 26 May 2017 12:58:26
Eccentricity: 0.0013163
inclination: 82.5373°
perigee height: 606 km
apogee height: 625 km
right ascension of ascending node: 282.9054°
argument of perigee: 109.2109°
revolutions per day: 14.84274222
mean anomaly at epoch: 301.8065°
orbit number at epoch: 71999

The dashed part of the orbit path shows where the satellite is in the earth's shadow,  

DLR